Location: Москва
(55.7504°N, 37.6175°E)
Time: 10:42:23
(UTC+03:00)

ISS - Visible Passes

Search period start: 04 March 2024 00:00
Search period end: 14 March 2024 00:00
Orbit: 414 x 422 km, 51.6° (Epoch: 04 March)

Date Brightness Start Highest point End Pass type
(mag) Time Alt. Az. Time Alt. Az. Time Alt. Az.
04 Mar -2.2 05:03:50 25° S 05:03:50 25° S 05:06:00 10° SE visible
05 Mar -1.0 04:17:53 12° SE 04:17:53 12° SE 04:18:15 10° SE visible
05 Mar -1.7 05:50:50 13° SW 05:51:16 14° SW 05:53:03 10° S visible
06 Mar -1.4 05:04:58 14° S 05:04:58 14° S 05:05:49 10° SSE visible
